Weather History for Oshkosh, WI

Change the Weather History Date:

Thursday, May 23, 2013

  Actual Average Record
Temperature  
Mean Temperature 52 °F -  
Max Temperature 59 °F 69 °F 86 °F (2007)
Min Temperature 44 °F 49 °F 32 °F (1963)
Degree Days  
Heating Degree Days 14    
Growing Degree Days 2 (Base 50)    
Moisture  
Dew Point 40 °F    
Average Humidity 69    
Maximum Humidity 94    
Minimum Humidity 39    
Precipitation  
Precipitation 0.45 in - - ()
Sea Level Pressure  
Sea Level Pressure 30.07 in    
Wind  
Wind Speed 16 mph (NNE)    
Max Wind Speed 22 mph    
Max Gust Speed 30 mph    
Visibility 9 miles    
Events Rain    
Averages and records for this station are not official NWS values.
T = Trace of Precipitation, MM = Missing Value Source: NWS Daily Summary

Daily Weather History Graph

Daily Weather History Graph

Search for Another Location

Airport:

Trip Planner

Search our weather history database for the weather conditions in past years. The results will help you decide how hot, cold, wet, or windy it might be!

Date:

Astronomy

May. 23, 2013 Rise Set
Actual Time 5:20 AM CDT 8:22 PM CDT
Civil Twilight 4:45 AM CDT 8:56 PM CDT
Nautical Twilight 4:02 AM CDT 9:40 PM CDT
Astronomical Twilight 3:09 AM CDT 10:33 PM CDT
Moon 6:52 PM CDT (5/23) 4:08 AM CDT (5/23)
Length of Visible Light 16h 10m
Length of Day
15h 01m
Waxing Gibbous, 97% of the Moon is Illuminated
May 23
Waxing Gibbous
May 24
Full
May 31
Last Quarter
Jun 8
New
Jun 16
First Quarter

Hourly Weather History & Observations

Time (CDT) Temp. Windchill Dew Point Humidity Pressure Visibility Wind Dir Wind Speed Gust Speed Precip Events Conditions
12:08 AM 51.8 °F - 50.0 °F 94% 29.82 in 3.0 mi NNE 13.8 mph - 0.05 in Rain Rain
12:23 AM 51.8 °F - 50.0 °F 94% 29.82 in 3.0 mi North 15.0 mph - 0.09 in Rain Rain
12:53 AM 52.0 °F - 50.0 °F 93% 29.82 in 4.0 mi North 12.7 mph - 0.19 in Rain Rain
1:53 AM 53.1 °F - 51.1 °F 93% 29.83 in 3.0 mi North 15.0 mph 23.0 mph 0.18 in Rain Rain
2:53 AM 52.0 °F - 48.9 °F 89% 29.84 in 10.0 mi NNE 21.9 mph 29.9 mph 0.02 in   Overcast
3:53 AM 50.0 °F - 46.0 °F 86% 29.87 in 10.0 mi North 19.6 mph 29.9 mph 0.01 in Rain Light Rain
4:53 AM 48.0 °F - 44.1 °F 86% 29.91 in 10.0 mi North 19.6 mph 27.6 mph 0.01 in Rain Light Rain
5:01 AM 46.4 °F 39.0 °F 44.6 °F 93% 29.91 in 10.0 mi North 19.6 mph 25.3 mph 0.00 in Rain Light Rain
5:10 AM 46.4 °F 39.8 °F 44.6 °F 93% 29.92 in 10.0 mi North 16.1 mph - 0.00 in Rain Light Rain
5:53 AM 46.0 °F 38.5 °F 42.1 °F 86% 29.95 in 10.0 mi North 19.6 mph 28.8 mph 0.03 in Rain Light Rain
6:53 AM 45.0 °F 36.9 °F 41.0 °F 86% 29.99 in 10.0 mi North 20.7 mph 27.6 mph 0.01 in   Overcast
7:53 AM 45.0 °F 37.6 °F 39.9 °F 82% 30.03 in 10.0 mi North 17.3 mph 28.8 mph N/A   Overcast
8:18 AM 44.6 °F 36.9 °F 39.2 °F 81% 30.04 in 10.0 mi NNE 18.4 mph 24.2 mph N/A   Overcast
8:42 AM 44.6 °F 36.6 °F 37.4 °F 76% 30.06 in 10.0 mi North 19.6 mph 26.5 mph N/A   Overcast
8:53 AM 45.0 °F 37.9 °F 39.0 °F 80% 30.07 in 10.0 mi North 16.1 mph 25.3 mph N/A   Overcast
9:53 AM 48.0 °F - 37.0 °F 66% 30.09 in 10.0 mi North 18.4 mph - N/A   Mostly Cloudy
10:05 AM 48.2 °F - 37.4 °F 66% 30.09 in 10.0 mi North 21.9 mph 27.6 mph N/A   Scattered Clouds
10:49 AM 51.8 °F - 39.2 °F 62% 30.11 in 10.0 mi North 16.1 mph 24.2 mph N/A   Mostly Cloudy
10:53 AM 51.1 °F - 39.0 °F 63% 30.11 in 10.0 mi NNE 19.6 mph 26.5 mph N/A   Mostly Cloudy
11:04 AM 51.8 °F - 39.2 °F 62% 30.11 in 10.0 mi North 16.1 mph 24.2 mph N/A   Scattered Clouds
11:11 AM 51.8 °F - 39.2 °F 62% 30.11 in 10.0 mi NE 16.1 mph - N/A   Mostly Cloudy
11:53 AM 53.1 °F - 39.9 °F 61% 30.13 in 10.0 mi NNE 13.8 mph 24.2 mph N/A   Scattered Clouds
12:02 PM 53.6 °F - 41.0 °F 62% 30.13 in 10.0 mi North 15.0 mph 20.7 mph N/A   Mostly Cloudy
12:53 PM 53.1 °F - 41.0 °F 64% 30.14 in 10.0 mi North 17.3 mph - N/A   Mostly Cloudy
1:23 PM 55.4 °F - 42.8 °F 63% 30.14 in 10.0 mi North 13.8 mph - N/A   Mostly Cloudy
1:53 PM 55.0 °F - 41.0 °F 59% 30.15 in 10.0 mi NNE 11.5 mph 19.6 mph N/A   Overcast
2:53 PM 57.9 °F - 37.0 °F 46% 30.16 in 10.0 mi NE 17.3 mph 21.9 mph N/A   Partly Cloudy
3:53 PM 57.9 °F - 35.1 °F 42% 30.17 in 10.0 mi NNE 16.1 mph 23.0 mph N/A   Clear
4:53 PM 59.0 °F - 34.0 °F 39% 30.18 in 10.0 mi NNE 11.5 mph - N/A   Clear
5:53 PM 57.9 °F - 34.0 °F 41% 30.20 in 10.0 mi NE 13.8 mph 28.8 mph N/A   Clear
6:53 PM 57.0 °F - 32.0 °F 39% 30.23 in 10.0 mi NE 10.4 mph - N/A   Clear
7:53 PM 55.0 °F - 35.1 °F 47% 30.25 in 10.0 mi NE 9.2 mph - N/A   Clear
8:53 PM 53.1 °F - 37.0 °F 55% 30.27 in 10.0 mi NE 9.2 mph - N/A   Clear
9:53 PM 51.1 °F - 36.0 °F 56% 30.29 in 10.0 mi ENE 15.0 mph 20.7 mph N/A   Clear
10:53 PM 48.0 °F - 35.1 °F 61% 30.32 in 10.0 mi ENE 9.2 mph - N/A   Clear
11:53 PM 46.9 °F - 35.1 °F 63% 30.33 in 10.0 mi NE 8.1 mph - N/A   Clear